CW7079 Weather Reports


Display with metric or nautical units.
time (UTC)temp
F
wind
direction
speed
MPH
gust
MPH
rain 1hr
in
rain 24hr
in
rain mn
in
humidity
%
barometer
mb
20260510172157 54 32 12.0 19.0 0.00 0.00 0.00 54 1016.4
20260510165103 56 15 12.0 22.0 0.00 0.00 0.00 52 1016.8
20260510162159 58 54 11.0 20.0 0.00 0.00 0.00 50 1016.8
20260510155235 57 50 11.0 19.0 0.00 0.00 0.00 53 1017.2
20260510152337 58 24 10.0 20.0 0.00 0.00 0.00 51 1017.4
20260510145430 57 55 13.0 20.0 0.00 0.00 0.00 51 1017.8
20260510142500 58 43 12.0 23.0 0.00 0.00 0.00 54 1018.0
20260510135507 58 69 12.0 18.0 0.00 0.00 0.00 55 1018.4
20260510132505 58 28 12.0 22.0 0.00 0.00 0.00 56 1018.4
20260510125507 57 33 13.0 21.0 0.00 0.00 0.00 57 1018.7
20260510122446 56 38 13.0 19.0 0.00 0.00 0.00 61 1018.9
20260510115600 55 5 13.0 20.0 0.00 0.00 0.00 62 1019.4
20260510112520 55 25 12.0 20.0 0.00 0.00 0.00 64 1019.5
20260510105400 54 34 12.0 19.0 0.00 0.00 0.00 67 1019.9
20260510102316 55 26 14.0 22.0 0.00 0.00 0.00 69 1019.9
20260510095306 56 16 13.0 21.0 0.00 0.00 0.00 68 1019.9
20260510092145 55 55 12.0 21.0 0.00 0.00 0.00 72 1020.2
20260510085202 52 38 9.0 16.0 0.00 0.00 0.00 75 1020.5
20260510082220 52 63 11.0 18.0 0.00 0.00 0.00 77 1020.5
20260510075210 52 41 11.0 17.0 0.00 0.00 0.00 79 1020.5
20260510072213 51 24 8.0 15.0 0.00 0.00 0.00 81 1020.4
20260510065130 52 30 8.0 14.0 0.00 0.00 0.00 83 1020.1
20260510062045 51 17 8.0 14.0 0.00 0.00 0.00 84 1020.0
20260510054923 50 27 7.0 13.0 0.00 0.00 0.00 85 1019.9
20260510044821 49 13 6.0 10.0 0.00 0.00 0.00 89 1020.0
20260510041840 48 28 5.0 7.0 0.00 0.00 0.00 89 1020.0
20260510034925 47 13 4.0 7.0 0.00 0.00 0.00 89 1020.1
20260510031835 47 16 4.0 7.0 0.00 0.00 0.00 89 1020.0
20260510024959 48 30 4.0 5.0 0.00 0.00 0.00 88 1020.4
20260510021845 48 28 5.0 11.0 0.00 0.00 0.00 89 1020.3
20260510014941 48 18 5.0 9.0 0.00 0.00 0.00 89 1020.5
20260510012025 48 15 4.0 7.0 0.00 0.00 0.00 89 1020.5
20260510004919 48 5 5.0 8.0 0.00 0.00 0.00 89 1020.5
20260510002039 48 10 6.0 8.0 0.00 0.00 0.00 88 1020.5
20260509234959 48 10 5.0 8.0 0.00 0.00 0.00 86 1020.5
20260509231900 49 19 5.0 7.0 0.00 0.00 0.00 85 1020.9
20260509224956 50 20 5.0 7.0 0.00 0.00 0.00 83 1020.7
20260509221934 50 15 6.0 10.0 0.00 0.00 0.00 82 1020.4
20260509214953 51 24 8.0 14.0 0.00 0.00 0.00 81 1020.2
20260509212032 52 15 9.0 14.0 0.00 0.00 0.00 78 1019.9
20260509204924 53 11 6.0 10.0 0.00 0.00 0.00 59 1019.6
20260509201804 55 22 5.0 9.0 0.00 0.00 0.00 53 1019.5
20260509194903 58 32 4.0 7.0 0.00 0.00 0.00 48 1019.0
20260509191937 60 33 5.0 9.0 0.00 0.00 0.00 45 1018.9
20260509184817 62 48 9.0 13.0 0.00 0.00 0.00 42 1018.4
20260509174713 66 47 8.0 15.0 0.00 0.00 0.00 40 1018.0